Location: Goodmans Corner
(38.2049°N, 120.9872°W)
Time: 20:51:50
(UTC+00:00)

Envisat - Pass Details

Date: 24 October 2019
Orbit: 764 x 766 km, 98.1° (Epoch: 16 November)

Event Time Altitude Azimuth Distance (km) Brightness Sun altitude
Rises 03:17:01 0° 204° (SSW) 3,218 6.5 -24.5°
Reaches altitude 10° 03:19:56 10° 221° (SW) 2,297 5.9 -25.1°
Maximum altitude 03:23:32 19° 267° (W) 1,742 5.6 -25.8°
Drops below altitude 10° 03:27:09 10° 313° (NW) 2,308 6.1 -26.5°
Sets 03:30:06 0° 330° (NNW) 3,239 6.7 -27.1°
